GMA501 EGLF-LDDU

Flight info

Callsign GMA501
Flight time 2h 9m
Altitude 45000
Route GWC DCT GOXUL UL9 BIG L607 KONAN UL607 KOK M150 GEBDA/N0503F430 Y173 PABLA/N0503F450 Z721 UTABA L607 ELMEM N606 OTRES T307 DIRAB DCT KEBBU DCT PALEZ DCT SIPAL
Aircraft GA7C/M-SBDE2E3FGHIJ4J5M1RWXY/LB1D1

Departure

Time 2026-05-07 19:44
Airport Farnborough Airport (EGLF)

Arrival

Time 2026-05-07 21:53
Airport Dubrovnik Ruđer Bošković Airport (LDDU)
Time Latitude Longitude Altitude Speed Heading
2026-05-07 19:17 51.28216 -0.77756 216 ft 0 kts 96°
2026-05-07 19:39 51.28207 -0.77733 216 ft 10 kts 132°
2026-05-07 19:39 51.28141 -0.77752 216 ft 11 kts 214°
2026-05-07 19:39 51.28063 -0.77839 216 ft 15 kts 210°
2026-05-07 19:40 51.27949 -0.77884 218 ft 18 kts 197°
2026-05-07 19:40 51.27844 -0.77996 218 ft 18 kts 216°
2026-05-07 19:40 51.27739 -0.78115 218 ft 18 kts 215°
2026-05-07 19:40 51.27647 -0.78248 223 ft 16 kts 234°
2026-05-07 19:41 51.27548 -0.78394 221 ft 24 kts 220°
2026-05-07 19:41 51.27422 -0.78566 222 ft 23 kts 220°
2026-05-07 19:41 51.27313 -0.78737 227 ft 20 kts 241°
2026-05-07 19:41 51.27250 -0.78926 232 ft 18 kts 242°
2026-05-07 19:42 51.27198 -0.79084 235 ft 14 kts 243°
2026-05-07 19:42 51.27164 -0.79162 233 ft 0 kts 212°
2026-05-07 19:42 51.27164 -0.79163 233 ft 0 kts 212°
2026-05-07 19:43 51.27153 -0.79170 232 ft 10 kts 200°
2026-05-07 19:43 51.27093 -0.79107 232 ft 11 kts 88°
2026-05-07 19:43 51.27163 -0.78880 230 ft 55 kts 62°
2026-05-07 19:43 51.27484 -0.77902 226 ft 142 kts 63°
2026-05-07 19:44 51.28027 -0.76227 640 ft 195 kts 64°
2026-05-07 19:44 51.28663 -0.74252 1068 ft 204 kts 64°
2026-05-07 19:44 51.29384 -0.72137 1624 ft 230 kts 62°
2026-05-07 19:44 51.29866 -0.69646 2130 ft 235 kts 89°
2026-05-07 19:45 51.29496 -0.67136 2648 ft 234 kts 114°
2026-05-07 19:45 51.28475 -0.65091 3076 ft 243 kts 141°
2026-05-07 19:45 51.26931 -0.64002 3494 ft 247 kts 167°
2026-05-07 19:45 51.25226 -0.64205 3957 ft 248 kts 196°
2026-05-07 19:46 51.23744 -0.65675 4446 ft 261 kts 225°
2026-05-07 19:46 51.22757 -0.68135 4980 ft 267 kts 242°
2026-05-07 19:46 51.21906 -0.70792 5007 ft 270 kts 242°
2026-05-07 19:46 51.21045 -0.73447 5010 ft 269 kts 240°
2026-05-07 19:47 51.19997 -0.75920 5000 ft 268 kts 233°
2026-05-07 19:47 51.18920 -0.78352 5001 ft 269 kts 234°
2026-05-07 19:47 51.17862 -0.80811 5003 ft 269 kts 234°
2026-05-07 19:47 51.16795 -0.83264 5004 ft 269 kts 234°
2026-05-07 19:48 51.15821 -0.85492 5004 ft 270 kts 234°
2026-05-07 19:48 51.15112 -0.87115 5006 ft 270 kts 234°
2026-05-07 19:48 51.14037 -0.89570 5006 ft 270 kts 234°
2026-05-07 19:48 51.12983 -0.91985 5479 ft 259 kts 234°
2026-05-07 19:49 51.12121 -0.94548 6478 ft 265 kts 247°
2026-05-07 19:49 51.11130 -0.96966 7390 ft 262 kts 223°
2026-05-07 19:49 51.09623 -0.98599 8381 ft 265 kts 210°
2026-05-07 19:49 51.07864 -0.99700 9413 ft 274 kts 194°
2026-05-07 19:50 51.05902 -0.99663 10012 ft 295 kts 171°
2026-05-07 19:50 51.04041 -0.98315 10040 ft 298 kts 146°
2026-05-07 19:50 51.02715 -0.95821 10039 ft 299 kts 119°
2026-05-07 19:50 51.02164 -0.92668 10049 ft 296 kts 97°
2026-05-07 19:51 51.02062 -0.89430 10065 ft 293 kts 92°
2026-05-07 19:51 51.02025 -0.86088 10554 ft 312 kts 91°
2026-05-07 19:51 51.02007 -0.82501 11594 ft 337 kts 91°
2026-05-07 19:51 51.02005 -0.78684 12666 ft 360 kts 91°
2026-05-07 19:52 51.02017 -0.74684 13753 ft 363 kts 91°
2026-05-07 19:52 51.02044 -0.70674 14724 ft 364 kts 90°
2026-05-07 19:52 51.02075 -0.66640 15711 ft 366 kts 91°
2026-05-07 19:52 51.02106 -0.62525 16740 ft 371 kts 90°
2026-05-07 19:53 51.02133 -0.58405 17791 ft 375 kts 91°
2026-05-07 19:53 51.02157 -0.54288 18790 ft 378 kts 91°
2026-05-07 19:53 51.02180 -0.50054 19768 ft 380 kts 91°
2026-05-07 19:53 51.02206 -0.45855 20760 ft 382 kts 91°
2026-05-07 19:54 51.02234 -0.41598 21811 ft 388 kts 91°
2026-05-07 19:54 51.02265 -0.37290 22883 ft 394 kts 91°
2026-05-07 19:54 51.02299 -0.32955 23928 ft 400 kts 91°
2026-05-07 19:54 51.02334 -0.28516 24878 ft 405 kts 91°
2026-05-07 19:55 51.02372 -0.24017 25858 ft 409 kts 91°
2026-05-07 19:55 51.02408 -0.19469 26876 ft 413 kts 91°
2026-05-07 19:55 51.02445 -0.14888 27925 ft 417 kts 91°
2026-05-07 19:55 51.02482 -0.10278 29017 ft 419 kts 91°
2026-05-07 19:56 51.02519 -0.05630 30057 ft 424 kts 91°
2026-05-07 19:56 51.02555 -0.00798 30067 ft 444 kts 91°
2026-05-07 19:56 51.02775 0.09174 29989 ft 461 kts 86°
2026-05-07 19:57 51.03469 0.19474 29943 ft 476 kts 85°
2026-05-07 19:57 51.04084 0.30112 29898 ft 491 kts 86°
2026-05-07 19:58 51.04757 0.41064 29879 ft 505 kts 85°
2026-05-07 19:58 51.05407 0.52319 29888 ft 518 kts 86°
2026-05-07 19:59 51.06076 0.63758 29917 ft 520 kts 85°
2026-05-07 19:59 51.06727 0.75272 29970 ft 526 kts 86°
2026-05-07 20:00 51.07378 0.86914 30029 ft 521 kts 86°
2026-05-07 20:00 51.08001 0.98295 30316 ft 509 kts 86°
2026-05-07 20:01 51.08299 1.03811 30678 ft 506 kts 86°
2026-05-07 20:01 51.08602 1.09461 31044 ft 506 kts 86°
2026-05-07 20:01 51.09195 1.20684 31072 ft 519 kts 86°
2026-05-07 20:02 51.09795 1.32255 31087 ft 530 kts 86°
2026-05-07 20:02 51.10390 1.43933 31384 ft 522 kts 86°
2026-05-07 20:03 51.10677 1.49673 32409 ft 522 kts 86°
2026-05-07 20:03 51.10963 1.55443 33461 ft 524 kts 86°
2026-05-07 20:03 51.11249 1.61231 34466 ft 524 kts 86°
2026-05-07 20:03 51.11529 1.67013 35391 ft 524 kts 86°
2026-05-07 20:04 51.11807 1.72786 36346 ft 522 kts 86°
2026-05-07 20:04 51.12081 1.78543 37342 ft 520 kts 86°
2026-05-07 20:04 51.12351 1.84256 38375 ft 516 kts 86°
2026-05-07 20:04 51.12616 1.89928 39285 ft 511 kts 86°
2026-05-07 20:05 51.12874 1.95541 40145 ft 505 kts 87°
2026-05-07 20:05 51.13006 2.01083 41021 ft 497 kts 94°
2026-05-07 20:05 51.12723 2.06523 41844 ft 491 kts 96°
2026-05-07 20:05 51.12437 2.11913 42634 ft 486 kts 96°
2026-05-07 20:06 51.12169 2.17243 43448 ft 480 kts 96°
2026-05-07 20:06 51.11883 2.22485 44288 ft 472 kts 96°
2026-05-07 20:06 51.11589 2.27661 45005 ft 467 kts 96°
2026-05-07 20:06 51.11301 2.32868 45042 ft 477 kts 96°
2026-05-07 20:07 51.10709 2.43583 45092 ft 496 kts 96°
2026-05-07 20:07 51.10075 2.54722 45090 ft 515 kts 96°
2026-05-07 20:08 51.08690 2.65938 45074 ft 528 kts 115°
2026-05-07 20:08 51.05210 2.76327 45243 ft 523 kts 123°
2026-05-07 20:09 51.03370 2.81155 45784 ft 514 kts 122°
2026-05-07 20:09 51.01659 2.86137 46284 ft 513 kts 118°
2026-05-07 20:09 51.00102 2.91229 46798 ft 511 kts 117°
2026-05-07 20:10 50.96724 3.01201 47081 ft 520 kts 121°
2026-05-07 20:10 50.93249 3.11522 47085 ft 529 kts 118°
2026-05-07 20:11 50.89796 3.21761 47072 ft 525 kts 121°
2026-05-07 20:11 50.86327 3.31938 47070 ft 526 kts 120°
2026-05-07 20:12 50.82857 3.42147 47077 ft 527 kts 120°
2026-05-07 20:12 50.79357 3.52348 47079 ft 528 kts 120°
2026-05-07 20:13 50.75858 3.62544 47078 ft 528 kts 120°
2026-05-07 20:13 50.72347 3.72708 47077 ft 528 kts 120°
2026-05-07 20:14 50.68818 3.82898 47067 ft 529 kts 120°
2026-05-07 20:14 50.65280 3.93068 47072 ft 529 kts 120°
2026-05-07 20:15 50.61729 4.03235 47073 ft 530 kts 120°
2026-05-07 20:15 50.58165 4.13397 47074 ft 530 kts 121°
2026-05-07 20:16 50.54596 4.23533 47077 ft 530 kts 121°
2026-05-07 20:16 50.51011 4.33675 47077 ft 531 kts 121°
2026-05-07 20:17 50.47417 4.43803 47091 ft 531 kts 121°
2026-05-07 20:17 50.43817 4.53904 47081 ft 530 kts 121°
2026-05-07 20:18 50.40230 4.63932 47068 ft 531 kts 121°
2026-05-07 20:18 50.36603 4.74033 47072 ft 531 kts 121°
2026-05-07 20:19 50.32970 4.84109 47066 ft 532 kts 121°
2026-05-07 20:19 50.29330 4.94167 47071 ft 531 kts 121°
2026-05-07 20:20 50.25676 5.04223 47068 ft 532 kts 121°
2026-05-07 20:20 50.22007 5.14278 47069 ft 532 kts 121°
2026-05-07 20:21 50.18336 5.24304 47069 ft 533 kts 121°
2026-05-07 20:21 50.14614 5.34429 47071 ft 533 kts 122°
2026-05-07 20:22 50.10915 5.44451 47075 ft 533 kts 122°
2026-05-07 20:22 50.07233 5.54388 47068 ft 533 kts 122°
2026-05-07 20:23 50.03518 5.64377 47077 ft 534 kts 122°
2026-05-07 20:23 49.99783 5.74378 47073 ft 535 kts 122°
2026-05-07 20:24 49.96046 5.84351 47065 ft 534 kts 122°
2026-05-07 20:24 49.92291 5.94329 47064 ft 534 kts 122°
2026-05-07 20:25 49.88533 6.04282 47063 ft 535 kts 122°
2026-05-07 20:25 49.84757 6.14238 47066 ft 535 kts 122°
2026-05-07 20:26 49.80981 6.24163 47067 ft 535 kts 122°
2026-05-07 20:26 49.77193 6.34076 47056 ft 535 kts 122°
2026-05-07 20:27 49.73394 6.43983 47069 ft 536 kts 122°
2026-05-07 20:27 49.70227 6.52210 47068 ft 536 kts 122°
2026-05-07 20:28 49.65789 6.63702 47054 ft 536 kts 123°
2026-05-07 20:28 49.61964 6.73562 47063 ft 536 kts 123°
2026-05-07 20:29 49.58751 6.81819 47064 ft 535 kts 123°
2026-05-07 20:29 49.54910 6.91649 47066 ft 536 kts 123°
2026-05-07 20:30 49.51058 7.01480 47070 ft 536 kts 123°
2026-05-07 20:30 49.47218 7.11239 47076 ft 537 kts 123°
2026-05-07 20:31 49.43347 7.21040 47064 ft 536 kts 123°
2026-05-07 20:31 49.39469 7.30824 47061 ft 537 kts 123°
2026-05-07 20:32 49.35574 7.40614 47066 ft 537 kts 123°
2026-05-07 20:32 49.31673 7.50381 47061 ft 537 kts 123°
2026-05-07 20:33 49.27768 7.60124 47064 ft 536 kts 123°
2026-05-07 20:33 49.23853 7.69855 47062 ft 537 kts 123°
2026-05-07 20:34 49.19921 7.79593 47067 ft 538 kts 124°
2026-05-07 20:34 49.15979 7.89320 47066 ft 537 kts 124°
2026-05-07 20:35 49.12038 7.99010 47060 ft 537 kts 124°
2026-05-07 20:35 49.08081 8.08700 47070 ft 539 kts 124°
2026-05-07 20:36 49.04112 8.18390 47071 ft 538 kts 124°
2026-05-07 20:36 49.00140 8.28049 47062 ft 538 kts 124°
2026-05-07 20:37 48.95558 8.36900 47073 ft 530 kts 144°
2026-05-07 20:37 48.92462 8.39881 47087 ft 525 kts 157°
2026-05-07 20:37 48.89033 8.41682 47090 ft 520 kts 171°
2026-05-07 20:38 48.81879 8.42651 47074 ft 520 kts 173°
2026-05-07 20:38 48.78380 8.44126 47074 ft 524 kts 159°
2026-05-07 20:38 48.75180 8.46809 47078 ft 529 kts 146°
2026-05-07 20:39 48.69651 8.54251 47093 ft 534 kts 139°
2026-05-07 20:39 48.64248 8.61960 47083 ft 533 kts 140°
2026-05-07 20:40 48.58793 8.69538 47081 ft 533 kts 140°
2026-05-07 20:40 48.53355 8.77182 47082 ft 534 kts 140°
2026-05-07 20:41 48.47928 8.84717 47080 ft 534 kts 140°
2026-05-07 20:41 48.42467 8.92317 47079 ft 533 kts 140°
2026-05-07 20:42 48.37002 8.99878 47081 ft 534 kts 140°
2026-05-07 20:42 48.31525 9.07443 47076 ft 534 kts 140°
2026-05-07 20:43 48.26060 9.14965 47076 ft 532 kts 140°
2026-05-07 20:43 48.20592 9.22466 47076 ft 533 kts 140°
2026-05-07 20:44 48.15110 9.29968 47074 ft 533 kts 140°
2026-05-07 20:44 48.09635 9.37436 47070 ft 532 kts 140°
2026-05-07 20:45 48.04150 9.44894 47065 ft 533 kts 140°
2026-05-07 20:45 47.98649 9.52351 47066 ft 535 kts 140°
2026-05-07 20:46 47.93142 9.59797 47062 ft 534 kts 140°
2026-05-07 20:46 47.87633 9.67218 47055 ft 534 kts 141°
2026-05-07 20:47 47.82148 9.74589 47042 ft 534 kts 141°
2026-05-07 20:47 47.76621 9.81991 47053 ft 536 kts 141°
2026-05-07 20:48 47.71074 9.89400 47057 ft 536 kts 141°
2026-05-07 20:48 47.65531 9.96783 47067 ft 535 kts 141°
2026-05-07 20:49 47.59943 10.04201 47063 ft 536 kts 141°
2026-05-07 20:49 47.54422 10.11510 47071 ft 535 kts 141°
2026-05-07 20:50 47.48879 10.18826 47066 ft 533 kts 141°
2026-05-07 20:50 47.43333 10.26123 47069 ft 534 kts 141°
2026-05-07 20:51 47.37776 10.33414 47075 ft 535 kts 141°
2026-05-07 20:51 47.32218 10.40687 47063 ft 534 kts 141°
2026-05-07 20:52 47.26645 10.47953 47074 ft 535 kts 141°
2026-05-07 20:52 47.21055 10.55226 47070 ft 535 kts 141°
2026-05-07 20:53 47.15485 10.62448 47078 ft 534 kts 141°
2026-05-07 20:53 47.09927 10.69634 47079 ft 535 kts 141°
2026-05-07 20:54 47.04340 10.76838 47089 ft 534 kts 141°
2026-05-07 20:54 46.98743 10.84032 47093 ft 535 kts 141°
2026-05-07 20:55 46.93139 10.91216 47087 ft 535 kts 141°
2026-05-07 20:55 46.87531 10.98383 47087 ft 534 kts 142°
2026-05-07 20:56 46.82022 11.05684 47074 ft 537 kts 135°
2026-05-07 20:56 46.77561 11.14506 47080 ft 543 kts 126°
2026-05-07 20:57 46.73359 11.23545 47077 ft 542 kts 127°
2026-05-07 20:57 46.69140 11.32653 47027 ft 542 kts 127°
2026-05-07 20:58 46.64900 11.41734 46998 ft 543 kts 127°
2026-05-07 20:58 46.60659 11.50811 47014 ft 542 kts 127°
2026-05-07 20:59 46.56415 11.59852 47012 ft 542 kts 127°
2026-05-07 20:59 46.52152 11.68912 47021 ft 543 kts 127°
2026-05-07 21:00 46.47884 11.77950 47034 ft 542 kts 127°
2026-05-07 21:00 46.43614 11.86961 47047 ft 542 kts 127°
2026-05-07 21:01 46.39334 11.95970 47048 ft 543 kts 127°
2026-05-07 21:01 46.35045 12.04964 47051 ft 542 kts 127°
2026-05-07 21:02 46.30761 12.13921 47047 ft 540 kts 127°
2026-05-07 21:02 46.26478 12.22845 47039 ft 539 kts 127°
2026-05-07 21:03 46.22199 12.31736 47030 ft 539 kts 127°
2026-05-07 21:03 46.17910 12.40616 47021 ft 539 kts 128°
2026-05-07 21:04 46.13609 12.49494 47017 ft 539 kts 128°
2026-05-07 21:04 46.09333 12.58293 47016 ft 539 kts 128°
2026-05-07 21:05 46.05024 12.67132 47014 ft 539 kts 128°
2026-05-07 21:05 46.00703 12.75967 47014 ft 540 kts 128°
2026-05-07 21:06 45.96380 12.84780 47047 ft 540 kts 128°
2026-05-07 21:06 45.92038 12.93604 47047 ft 540 kts 128°
2026-05-07 21:07 45.87696 13.02401 47044 ft 539 kts 128°
2026-05-07 21:07 45.83352 13.11173 47032 ft 539 kts 128°
2026-05-07 21:08 45.79001 13.19932 47036 ft 539 kts 128°
2026-05-07 21:08 45.74639 13.28685 47039 ft 540 kts 128°
2026-05-07 21:09 45.70269 13.37430 47029 ft 540 kts 128°
2026-05-07 21:09 45.65897 13.46152 47039 ft 539 kts 128°
2026-05-07 21:10 45.61510 13.54869 47043 ft 541 kts 129°
2026-05-07 21:10 45.57121 13.63510 47048 ft 540 kts 129°
2026-05-07 21:11 45.52718 13.72181 47048 ft 540 kts 129°
2026-05-07 21:11 45.46073 13.85199 47048 ft 541 kts 129°
2026-05-07 21:12 45.42362 13.92445 47042 ft 540 kts 129°
2026-05-07 21:12 45.37922 14.01087 47047 ft 541 kts 129°
2026-05-07 21:13 45.33475 14.09722 47064 ft 541 kts 129°
2026-05-07 21:13 45.29042 14.18298 47066 ft 543 kts 129°
2026-05-07 21:14 45.24566 14.26938 47069 ft 543 kts 129°
2026-05-07 21:14 45.20083 14.35558 47072 ft 544 kts 129°
2026-05-07 21:15 45.15563 14.44229 47073 ft 542 kts 129°
2026-05-07 21:15 45.11078 14.52804 47068 ft 541 kts 129°
2026-05-07 21:16 45.06583 14.61372 47072 ft 542 kts 129°
2026-05-07 21:16 45.02080 14.69930 47063 ft 542 kts 129°
2026-05-07 21:17 44.97583 14.78450 47071 ft 541 kts 129°
2026-05-07 21:17 44.93076 14.86966 47070 ft 542 kts 129°
2026-05-07 21:18 44.88564 14.95466 47072 ft 542 kts 130°
2026-05-07 21:18 44.84042 15.03957 47083 ft 541 kts 130°
2026-05-07 21:19 44.79512 15.12440 47088 ft 542 kts 130°
2026-05-07 21:19 44.74973 15.20914 47077 ft 542 kts 130°
2026-05-07 21:20 44.70433 15.29367 47070 ft 541 kts 130°
2026-05-07 21:20 44.65887 15.37803 47083 ft 542 kts 130°
2026-05-07 21:21 44.61330 15.46237 47088 ft 542 kts 130°
2026-05-07 21:21 44.56478 15.54265 47091 ft 536 kts 140°
2026-05-07 21:22 44.50738 15.60751 47100 ft 534 kts 145°
2026-05-07 21:22 44.44909 15.67197 47096 ft 534 kts 145°
2026-05-07 21:23 44.39056 15.73600 47088 ft 534 kts 145°
2026-05-07 21:23 44.33219 15.80004 47092 ft 534 kts 145°
2026-05-07 21:24 44.27363 15.86389 47085 ft 533 kts 145°
2026-05-07 21:24 44.21515 15.92764 47091 ft 535 kts 145°
2026-05-07 21:25 44.15637 15.99147 47093 ft 535 kts 145°
2026-05-07 21:25 44.09765 16.05512 47097 ft 535 kts 145°
2026-05-07 21:26 44.03895 16.11854 47077 ft 534 kts 146°
2026-05-07 21:26 43.98034 16.18172 47089 ft 533 kts 146°
2026-05-07 21:27 43.92166 16.24481 47088 ft 534 kts 146°
2026-05-07 21:27 43.86294 16.30777 47088 ft 534 kts 146°
2026-05-07 21:28 43.80415 16.37066 47070 ft 533 kts 146°
2026-05-07 21:28 43.74533 16.43342 47095 ft 535 kts 146°
2026-05-07 21:29 43.68635 16.49619 47095 ft 535 kts 146°
2026-05-07 21:29 43.62739 16.55878 47085 ft 534 kts 146°
2026-05-07 21:30 43.56846 16.62117 47079 ft 534 kts 146°
2026-05-07 21:30 43.50952 16.68342 47088 ft 533 kts 146°
2026-05-07 21:31 43.45100 16.74505 47085 ft 535 kts 146°
2026-05-07 21:31 43.39173 16.80737 47095 ft 537 kts 146°
2026-05-07 21:32 43.33201 16.86997 47077 ft 536 kts 147°
2026-05-07 21:32 43.27293 16.93172 47081 ft 533 kts 147°
2026-05-07 21:33 43.24383 16.96220 46867 ft 521 kts 147°
2026-05-07 21:33 43.21507 16.99214 45776 ft 518 kts 147°
2026-05-07 21:33 43.18643 17.02185 44755 ft 512 kts 147°
2026-05-07 21:33 43.15847 17.05165 43601 ft 508 kts 143°
2026-05-07 21:34 43.13353 17.08561 42519 ft 504 kts 135°
2026-05-07 21:34 43.11224 17.12344 41488 ft 500 kts 128°
2026-05-07 21:34 43.09318 17.16270 40528 ft 492 kts 128°
2026-05-07 21:34 43.07420 17.20116 39611 ft 484 kts 129°
2026-05-07 21:35 43.05543 17.23913 38711 ft 478 kts 129°
2026-05-07 21:35 43.03702 17.27670 37631 ft 472 kts 129°
2026-05-07 21:35 43.01892 17.31357 36626 ft 464 kts 129°
2026-05-07 21:35 43.00102 17.34981 35627 ft 454 kts 130°
2026-05-07 21:36 42.98363 17.38503 34670 ft 442 kts 130°
2026-05-07 21:36 42.96667 17.41935 33671 ft 430 kts 130°
2026-05-07 21:36 42.95008 17.45284 32623 ft 421 kts 129°
2026-05-07 21:36 42.93384 17.48561 31621 ft 412 kts 129°
2026-05-07 21:37 42.91794 17.51767 30657 ft 405 kts 129°
2026-05-07 21:37 42.90157 17.54825 29627 ft 393 kts 137°
2026-05-07 21:37 42.88271 17.57440 28575 ft 383 kts 141°
2026-05-07 21:37 42.86422 17.60018 27561 ft 377 kts 139°
2026-05-07 21:38 42.84623 17.62579 26560 ft 370 kts 139°
2026-05-07 21:38 42.82834 17.65062 25617 ft 363 kts 140°
2026-05-07 21:38 42.81077 17.67481 24701 ft 356 kts 139°
2026-05-07 21:38 42.79357 17.69870 23810 ft 350 kts 139°
2026-05-07 21:39 42.77727 17.72300 22772 ft 346 kts 131°
2026-05-07 21:39 42.76474 17.75089 21749 ft 344 kts 121°
2026-05-07 21:39 42.75377 17.77946 20780 ft 338 kts 121°
2026-05-07 21:39 42.74273 17.80740 19827 ft 333 kts 122°
2026-05-07 21:40 42.73208 17.83458 18928 ft 328 kts 121°
2026-05-07 21:40 42.72135 17.86216 17970 ft 323 kts 121°
2026-05-07 21:40 42.71089 17.88890 16964 ft 318 kts 121°
2026-05-07 21:40 42.70057 17.91525 15988 ft 314 kts 122°
2026-05-07 21:41 42.69038 17.94121 15039 ft 309 kts 122°
2026-05-07 21:41 42.68033 17.96683 14158 ft 304 kts 122°
2026-05-07 21:41 42.67104 17.99064 14024 ft 274 kts 122°
2026-05-07 21:41 42.66172 18.01281 13229 ft 266 kts 131°
2026-05-07 21:42 42.64757 18.02817 12403 ft 254 kts 161°
2026-05-07 21:42 42.63095 18.03149 11669 ft 242 kts 189°
2026-05-07 21:42 42.61540 18.02427 10967 ft 234 kts 207°
2026-05-07 21:42 42.60105 18.01407 10293 ft 231 kts 208°
2026-05-07 21:43 42.58765 18.00244 9566 ft 229 kts 222°
2026-05-07 21:43 42.57988 17.98373 8797 ft 234 kts 254°
2026-05-07 21:43 42.58081 17.96159 8077 ft 241 kts 284°
2026-05-07 21:43 42.58809 17.94112 7421 ft 241 kts 295°
2026-05-07 21:44 42.59619 17.92129 6761 ft 240 kts 295°
2026-05-07 21:44 42.60434 17.90153 6080 ft 240 kts 295°
2026-05-07 21:44 42.61269 17.88155 5373 ft 240 kts 295°
2026-05-07 21:44 42.62276 17.86409 4634 ft 242 kts 320°
2026-05-07 21:45 42.63851 17.85560 3984 ft 245 kts 356°
2026-05-07 21:45 42.65413 17.86039 3992 ft 229 kts 31°
2026-05-07 21:45 42.66494 17.87550 3992 ft 224 kts 64°
2026-05-07 21:45 42.66979 17.89522 4041 ft 220 kts 77°
2026-05-07 21:46 42.67393 17.91545 4009 ft 223 kts 77°
2026-05-07 21:46 42.67803 17.93567 4016 ft 222 kts 78°
2026-05-07 21:46 42.68218 17.95642 3790 ft 227 kts 77°
2026-05-07 21:46 42.68446 17.97716 3401 ft 225 kts 97°
2026-05-07 21:47 42.67918 17.99687 3021 ft 221 kts 121°
2026-05-07 21:47 42.67095 18.01346 3018 ft 203 kts 127°
2026-05-07 21:47 42.66171 18.02703 2991 ft 189 kts 137°
2026-05-07 21:47 42.65268 18.03902 2975 ft 176 kts 128°
2026-05-07 21:48 42.64687 18.05315 3000 ft 168 kts 120°
2026-05-07 21:48 42.64125 18.06624 3013 ft 151 kts 121°
2026-05-07 21:48 42.63644 18.07839 3014 ft 140 kts 118°
2026-05-07 21:48 42.63215 18.08915 3011 ft 125 kts 122°
2026-05-07 21:49 42.62800 18.09985 2964 ft 134 kts 118°
2026-05-07 21:49 42.62353 18.11091 2799 ft 133 kts 121°
2026-05-07 21:49 42.61927 18.12202 2606 ft 132 kts 117°
2026-05-07 21:49 42.61478 18.13294 2441 ft 133 kts 120°
2026-05-07 21:50 42.61059 18.14401 2267 ft 131 kts 116°
2026-05-07 21:50 42.60618 18.15475 2084 ft 131 kts 118°
2026-05-07 21:50 42.60201 18.16566 1912 ft 127 kts 116°
2026-05-07 21:50 42.59798 18.17564 1742 ft 116 kts 116°
2026-05-07 21:51 42.59411 18.18541 1585 ft 121 kts 116°
2026-05-07 21:51 42.59016 18.19560 1431 ft 121 kts 117°
2026-05-07 21:51 42.58617 18.20559 1253 ft 122 kts 115°
2026-05-07 21:51 42.58226 18.21574 1106 ft 121 kts 116°
2026-05-07 21:52 42.57833 18.22563 938 ft 119 kts 117°
2026-05-07 21:52 42.57442 18.23532 786 ft 115 kts 117°
2026-05-07 21:52 42.57062 18.24496 641 ft 117 kts 117°
2026-05-07 21:52 42.56677 18.25428 547 ft 109 kts 118°
2026-05-07 21:53 42.56361 18.26238 528 ft 78 kts 116°
2026-05-07 21:53 42.56233 18.26588 528 ft 19 kts 119°
2026-05-07 21:53 42.56162 18.26628 528 ft 12 kts 208°
2026-05-07 21:53 42.56121 18.26530 528 ft 12 kts 243°
2026-05-07 21:54 42.56104 18.26435 528 ft 10 kts 288°
2026-05-07 21:54 42.56140 18.26344 528 ft 12 kts 298°
2026-05-07 21:54 42.56188 18.26222 528 ft 18 kts 298°
2026-05-07 21:54 42.56231 18.26116 528 ft 20 kts 298°
2026-05-07 21:55 42.56298 18.25946 528 ft 19 kts 297°
2026-05-07 21:55 42.56286 18.25846 528 ft 10 kts 207°
2026-05-07 21:55 42.56225 18.25803 528 ft 8 kts 205°
2026-05-07 21:55 42.56191 18.25840 528 ft 7 kts 117°
2026-05-07 21:56 42.56178 18.25874 528 ft 0 kts 117°